Regional Weather Roundup
Issued by NWS Wakefield, VA

Home | Current Version | Previous Version | Text Only | Print | Product List | Glossary On
Versions: 1 2 3 4 5 6 7 8 9 10 11 12 13 14 15 16 17 18 19 20 21 22 23 24 25 26 27
000
ASUS41 KAKQ 210914
RWRAKQ

REGIONAL WEATHER ROUNDUP
NATIONAL WEATHER SERVICE WAKEFIELD VA
500 AM EDT MON MAY 21 2018

Note: "fair" indicates few or no clouds below 12,000 feet with no
significant weather and/or obstructions to visibility. * = Denotes
station may not report precipitation (e.g., rain,snow,etc.),
thunder or fog.

VAZ042-051-052>054-056-211000-
NORTHERN VIRGINIA

CITY           SKY/WX    TMP DP  RH WIND       PRES   REMARKS
WASH NATIONAL  MOCLDY    69  61  75 NE14      30.13R
DULLES         MOCLDY    67  62  84 N7        30.13R
FORT BELVOIR   FAIR      69  62  77 CALM      30.12R
QUANTICO       FAIR      70  66  87 NE8       30.12R
FREDERICKSBRG* MOCLDY    69  69 100 CALM      30.09R
STAFFORD*      FAIR      70  67  88 N6        30.14R
WARRENTON      MOCLDY    67  60  77 NE5       30.12R
CULPEPER*      MOCLDY    65  63  93 CALM      30.13R
MANASSAS*      FAIR      67  63  87 N5        30.13R
LEESBURG*      MOCLDY    64  63  94 N9        30.15R
WINCHESTER     FAIR      59  57  94 NW3       30.17R
FRONT ROYAL*   FAIR      61  61 100 CALM      30.14R
LURAY*         FAIR      61  61 100 CALM      30.15R
$$

VAZ048-049-060>072-079>083-211000-
CENTRAL AND SOUTH CENTRAL VIRGINIA

CITY           SKY/WX    TMP DP  RH WIND       PRES   REMARKS
RICHMOND       FAIR      70  66  87 CALM      30.08R
CHESTERFIELD*  FAIR      67  65  93 CALM      30.08R
PETERSBURG*    MOCLDY    68  67  94 CALM      30.09R
HANOVER        FAIR      67  66  97 CALM      30.09R
TAPPAHANNOCK*  FAIR      69  69 100 CALM      30.09S FOG
QUINTON*       FAIR      70  69  98 NW3       30.07S
CHARLOTTSVILLE FAIR      68  64  87 CALM      30.12R
GORDONSVILLE*  FAIR      67  65  91 NE3       30.11R
ORANGE*        FAIR      66  63  88 CALM      30.12R
LOUISA*        FAIR      65  64  96 N5        30.15R
BUMPASS*       FAIR      65  63  95 N3        30.10R
FARMVILLE*     FAIR     N/A N/A N/A N5        30.08R
CREWE*           N/A     66  66 100 CALM      30.08R
FORT PICKETT*  FAIR     N/A N/A N/A W9        30.08R
CHASE CITY*    FAIR      68  68 100 CALM      30.09R
CLARKSVILLE*   FAIR      68  68 100 CALM      30.08R
SOUTH HILL*    FAIR      68  68 100 SW3       30.13S
LAWRENCEVILLE* FAIR      69  68  97 CALM      30.07S
EMPORIA*         N/A     70  70 100 CALM      30.09S
$$

VAZ088>098-211000-
SOUTHEAST VIRGINIA

CITY           SKY/WX    TMP DP  RH WIND       PRES   REMARKS
NORFOLK        FAIR      74  72  93 SW9       30.06S
VIRGINIA BEACH MOCLDY    72  71  97 SW6       30.06S
NORFOLK NAVAL  MOCLDY    73  70  90 SW5       30.08R
WEST POINT*    FAIR      67  66  96 CALM      30.09R
SALUDA*        FAIR      73  73 100 NW3       30.07R
NEWPORT NEWS   FAIR      73  71  93 W6        30.07R
LANGLEY AFB    FAIR      73  73 100 W5        30.07R
FORT EUSTIS    FAIR      73  71  95 CALM      30.06R
WILLIAMSBURG*  FAIR      73  72  94 CALM      30.09R
HR EXEC AP*    FAIR      70  70 100 W3        30.08R
FRANKLIN*      FAIR      71  71  99 SW3       30.08R
US460-WAKEFLD  FAIR      72  70  93 CALM      30.07S FOG
$$

VAZ020-022-025-037-045-211000-
WEST CENTRAL AND SOUTHWEST VIRGINIA

CITY           SKY/WX    TMP DP  RH WIND       PRES   REMARKS
STAUNTON*      MOCLDY    60  60  99 CALM      30.17R FOG
WAYNESBORO*    FAIR      61  61  99 CALM      30.15S
HOT SPRINGS VA FAIR      64  55  73 N5        30.25R
LYNCHBURG      FAIR      65  65 100 CALM      30.11R FOG
DANVILLE       FAIR      65  65 100 S3        30.08S
SOUTH BOSTON*  FAIR      65  63  95 CALM      30.09R
MARTINSVILLE   FAIR      60  60  98 CALM      30.13S FOG
ROANOKE        FAIR      67  62  84 N3        30.15R
BLACKSBURG     FAIR      63  63 100 CALM      30.21R FOG
DUBLIN*        FAIR      64  64 100 CALM      30.19R FOG
MARION*        FAIR      62  62  98 CALM      30.22R
HILLSVILLE*    FAIR      63  62  97 CALM      30.18S
RICHLANDS*     FAIR      63  29  27 CALM      30.20S
WISE*          FAIR      64  64 100 S3        30.21R
ABINGDON*      FAIR      65  65 100 CALM      30.17S FOG
$$

MDZ021>025-VAZ099-100-211000-
SOUTHERN MARYLAND AND THE DELMARVA PENINSULA

CITY           SKY/WX    TMP DP  RH WIND       PRES   REMARKS
PATUXENT RIVER FAIR      73  66  78 NE8       30.09R
BAY BRIDGE APT FAIR      66  61  82 E5        30.12R
LEONARDTOWN    FAIR      68  64  88 NE3       30.12R
DOVER          FAIR      64  60  88 N7        30.11R
GEORGETOWN     FAIR      66  61  84 NE7       30.12R
EASTON         FAIR      67  61  81 E5        30.16R
CAMBRIDGE        N/A     68  63  83 NE9       30.10S
SALISBURY      FAIR      68  66  93 NE9       30.10R
TANGIER        NOT AVBL
OCEAN CITY     FAIR      66  62  87 NE13      30.11R
WALLOPS ISLAND MOCLDY    69  68  96 NE5       30.08S
ACCOMACK*      FAIR      72  71  96 NW3       30.07R
$$

NCZ012>017-030>032-211000-
NORTH CENTRAL AND EASTERN NORTH CAROLINA

CITY           SKY/WX    TMP DP  RH WIND       PRES   REMARKS
ROANOKE RAPIDS FAIR      70  70 100 SW5       30.08S
RALEIGH        MOCLDY    69  69 100 SW5       30.10R
ELIZABETH CITY FAIR      72  72 100 SW9       30.08S
AHOSKIE*       FAIR      70  70 100 CALM      30.09R
EDENTON*       FAIR      74  71  91 SW8       30.10S
CURRITUCK*     NOT AVBL
KILL DEVIL HLS FAIR      73  70  91 SW3       30.09S
MANTEO         FAIR      73  69  90 W9        30.11R
CAPE HATTERAS  FAIR      72  71  97 W8        30.12S
TARBORO*       NOT AVBL
GOLDSBORO      MOCLDY   N/A N/A N/A SW5       30.10S
WASHINGTON     CLOUDY    70  69  97 CALM      30.11S
GREENVILLE     FAIR      72  70  94 SW6       30.11S
NEW BERN       FAIR      68  68 100 SW3       30.13R
WILMINGTON     FAIR      71  68  90 SW6       30.13S
$$

VAZ048-211000-
ELSEWHERE

CITY           SKY/WX    TMP DP  RH WIND       PRES   REMARKS
HARRISBURG PA  FAIR      58  55  90 CALM      30.16R
BALTIMORE      MOCLDY    66  62  87 E7        30.12R
ANNAPOLIS      FAIR      71  62  73 NE6       30.12R
ANDREWS AFB    FAIR      67  62  83 NE3       30.12R
PHILADELPHIA   CLOUDY    63  55  75 N7        30.14R
HENDERSON NC   FAIR      67  66  98 S6        30.09S FOG
GREENSBORO     MOCLDY    65  64  97 SW8       30.10R
ROCKY MOUNT    FAIR      71  69  93 S6        30.09S
$$

VAZ100-211000-
MARINE

STATION/POSITION TIME  TEMP    WIND        PRES    WAVE   SWELL
                       AIR SEA DIR/SP/G            HT/PER HT/PER
                 (UTC) (F)     (DEG/KT/KT) (MB)    (FT/S) (FT/S)
BRANDYWINE LGT   0836   66      50/ 13/ 14 1019.8S
CAPE MAY NJ      0836   66 64   60/  4/  6 1018.8S
LEWES DE         0836   65 64     CALM     1019.3R
15NM E FENWICK I 0850   59 58   20/ 10/ 12 1019.6R   4/ 8   3/ 8
OCEAN-CITY-INLET 0836   68 59   30/  9/ 14 1019.7R
WACHAPREAGUE VA  0836   72 74  350/  2/  3 1018.0R
THOMAS POINT MD  0900   68 66   40/  9/  9 1020.9R
GOOSES REEF MD   0900   70      30/ 12/ 14 1020.0    1/ 2
COVE POINT MD    0836   71      90/ 14/ 17 1019.5R
SOLOMONS ISLAND  0836   71 69   50/ 11/ 13 1018.6R
BISHOPS HEAD MD  0836   71 76   40/ 12/ 15 1019.2R
PINEY POINT MD   0842           60/  9/ 12   N/A
POTOMAC MD       0900   72 69   40/ 16/ 19 1017.8
CAMBRIDGE MD     0836   70 72              1020.2R
LEWISETTA VA     0836   73 72   20/  5/  7 1018.4R
RAPPAHANNOCK LGT 0842          280/  5/  6 1018.6R
STINGRAY PT      0850   72     310/  4/  6 1017.1R
YORK RVR RNG VA  0842   73     290/  7/  7 1018.9R
YORKTOWN VA      0842   73 72  280/  2/  4 1018.0R
DOMINION TERM VA 0842          240/  7/  9 1018.5R
KIPTOPEKE VA     0842          230/  3/  4   N/A
CAPE HENRY VA    0842   74     220/  9/ 13   N/A
WILLOUBY STN VA  0842          230/ 10/ 10   N/A
S CRANEY ISL VA  0842   73     250/  4/  6 1018.1R
CAPE HENRY BUOY  0900      66                N/A     3/ 8
1ST LANDING BUOY 0900   71 68  250/  6/  8 1018.1    1/ 5
64NM E OF VA BCH 0850   70 68  240/ 10/ 12 1018.8R   5/ 8   5/ 8
DUCK PIER NC     0842   74 54  230/ 11/ 15 1018.5R
44100 DUCK FRF   0845      67                N/A     3/ 9   2/13
44056 DUCK FRF   0830      62                N/A     2/ 8
OREGON INLET NC  0836   74 76  220/ 15/ 16 1019.0R
HATTERAS NC      0842   73 77  230/  8/ 12 1019.4F
DIAMOND SHLS NC  0850   75 74  240/ 16/ 19 1020.1S   5/ 9   3/ 9
CAPE LOOKOUT NC  0900          220/  8/ 11 1020.5R
$$




USA.gov is the U.S. government's official web portal to all federal, state and local government web resources and services.